Latest Weather Observations for Adelaide Airport

IDS60901

Issued at 6:51 pm CST Tuesday 26 September 2017 (issued every 10 minutes, with the page automatically refreshed every 10 minutes)

About weather observations | Map of Adelaide area stations | Latest observations for Adelaide area | Other Formats
Station Details ID: 023034 Name: ADELAIDE AIRPORT Lat: -34.95 Lon: 138.52 Height: 2.0 m
Data from the previous 72 hours. | See also: Recent months at Adelaide Airport
Date/Time
CST
Temp
°C
App
Temp
°C
Dew
Point
°C
Rel
Hum
%
Delta-T
°C
Wind Press
QNH
hPa
Press
MSL
hPa
Rain since
9am
mm
Dir  Spd
km/h
Gust
km/h
Spd
kts
Gust
kts
26/06:30pm 20.2 15.1 3.3 32 8.0 ENE 19 26 10 14 1006.2 1006.2 0.0
26/06:00pm 20.8 15.9 4.0 33 8.1 ENE 19 33 10 18 1006.6 1006.6 0.0
26/05:30pm 21.6 17.2 5.0 34 8.2 ENE 17 26 9 14 1006.9 1006.9 0.0
26/05:00pm 21.6 15.4 4.4 32 8.4 ENE 26 33 14 18 1007.2 1007.2 0.0
26/04:30pm 22.4 16.2 4.2 30 8.9 ENE 26 32 14 17 1007.7 1007.7 0.0
26/04:00pm 22.0 15.8 4.5 32 8.6 NE 26 33 14 18 1008.1 1008.1 0.0
26/03:30pm 21.8 15.9 4.1 31 8.6 ENE 24 33 13 18 1008.0 1008.0 0.0
26/03:00pm 22.4 17.8 3.6 29 9.1 ENE 17 24 9 13 1008.1 1008.1 0.0
26/02:30pm 22.4 18.1 5.4 33 8.5 ENE 17 24 9 13 1008.8 1008.8 0.0
26/02:00pm 21.9 17.0 4.9 33 8.4 E 20 28 11 15 1009.4 1009.4 0.0
26/01:30pm 20.6 16.4 5.7 37 7.4 E 17 24 9 13 1010.3 1010.3 0.0
26/01:00pm 20.3 16.5 5.8 38 7.2 E 15 20 8 11 1011.4 1011.4 0.0
26/12:30pm 20.6 15.8 5.7 37 7.4 ENE 20 26 11 14 1011.6 1011.6 0.0
26/12:00pm 19.4 14.8 5.6 40 6.8 ENE 19 28 10 15 1012.1 1012.1 0.0
26/11:30am 19.2 14.2 4.7 38 7.0 E 20 30 11 16 1012.4 1012.4 0.0
26/11:00am 17.9 13.8 4.1 40 6.5 NE 15 24 8 13 1013.1 1013.1 0.0
26/10:30am 17.2 12.6 3.7 40 6.3 ENE 17 22 9 12 1013.2 1013.2 0.0
26/10:00am 16.8 12.6 3.9 42 6.0 ENE 15 19 8 10 1013.8 1013.8 0.0
26/09:30am 16.2 12.3 3.6 43 5.8 ENE 13 17 7 9 1014.4 1014.4 0.0
26/09:00am 15.6 11.0 3.6 44 5.5 E 17 22 9 12 1014.5 1014.5 0.0
26/08:30am 14.9 12.4 4.6 50 4.8 E 7 11 4 6 1015.0 1015.0 0.0
26/08:00am 14.7 11.0 4.6 50 4.7 ENE 13 19 7 10 1015.5 1015.5 0.0
26/07:30am 12.8 8.4 4.5 57 3.8 ENE 17 26 9 14 1014.9 1014.9 0.0
26/07:00am 11.0 8.2 5.1 67 2.7 NE 9 13 5 7 1015.0 1015.0 0.0
26/06:30am 9.6 6.0 5.2 74 2.0 ENE 13 17 7 9 1014.6 1014.6 0.0
26/06:00am 8.7 6.3 5.1 78 1.6 ESE 7 11 4 6 1014.4 1014.4 0.0
26/05:30am 8.6 6.2 5.3 80 1.5 NNE 7 13 4 7 1014.5 1014.5 0.0
26/05:00am 9.1 5.9 5.3 77 1.7 ENE 11 15 6 8 1014.1 1014.1 0.0
26/04:30am 8.9 6.8 5.8 81 1.4 NE 6 7 3 4 1013.7 1013.7 0.0
26/04:00am 8.4 5.1 6.2 86 1.0 ESE 13 15 7 8 1013.2 1013.2 0.0
26/03:30am 7.3 5.2 5.7 89 0.7 SE 6 7 3 4 1014.2 1014.2 0.0
26/03:00am 7.9 7.0 6.1 88 0.8 CALM 0 0 0 0 1015.0 1015.0 0.0
26/02:30am 8.2 7.3 6.0 86 1.0 CALM 0 0 0 0 1015.0 1015.0 0.0
26/02:00am 8.2 7.4 6.5 89 0.8 CALM 0 0 0 0 1015.5 1015.5 0.0
26/01:30am 8.5 7.7 6.3 86 1.0 CALM 0 0 0 0 1015.8 1015.8 0.0
26/01:00am 9.0 7.1 6.6 85 1.1 SE 6 7 3 4 1016.0 1016.0 0.0
26/12:30am 9.6 7.4 6.4 80 1.5 ENE 7 9 4 5 1016.1 1016.1 0.0
26/12:00am 9.9 7.0 6.7 80 1.5 ESE 11 15 6 8 1016.0 1016.0 0.0
 
Date/Time
CST
Temp
°C
App
Temp
°C
Dew
Point
°C
Rel
Hum
%
Delta-T
°C
Wind Press
QNH
hPa
Press
MSL
hPa
Rain since
9am
mm
Dir  Spd
km/h
Gust
km/h
Spd
kts
Gust
kts
25/11:30pm 9.7 6.8 6.7 81 1.4 SE 11 15 6 8 1016.1 1016.1 0.0
25/11:00pm 10.0 7.2 6.8 80 1.5 SE 11 13 6 7 1016.1 1016.1 0.0
25/10:30pm 10.5 7.4 7.1 79 1.6 SE 13 15 7 8 1016.2 1016.2 0.0
25/10:00pm 10.5 7.4 7.1 79 1.6 SE 13 15 7 8 1016.2 1016.2 0.0
25/09:30pm 11.2 8.2 7.5 78 1.8 ESE 13 15 7 8 1016.2 1016.2 0.0
25/09:00pm 12.1 8.6 7.3 72 2.3 SE 15 19 8 10 1016.0 1016.0 0.0
25/08:30pm 11.9 8.0 7.3 73 2.2 SE 17 20 9 11 1015.9 1015.9 0.0
25/08:00pm 12.3 8.6 7.8 74 2.2 SE 17 20 9 11 1015.7 1015.7 0.0
25/07:30pm 12.9 9.3 8.3 73 2.3 SSE 17 20 9 11 1015.4 1015.4 0.0
25/07:00pm 13.5 10.5 9.2 75 2.2 SSW 15 19 8 10 1014.9 1014.9 0.0
25/06:30pm 13.7 10.7 9.4 75 2.2 SSW 15 20 8 11 1014.5 1014.5 0.0
25/06:00pm 14.0 10.5 8.9 71 2.6 SW 17 24 9 13 1014.2 1014.2 0.0
25/05:30pm 14.9 10.9 8.1 64 3.4 SW 19 26 10 14 1014.1 1014.1 0.0
25/05:00pm 15.3 11.1 8.1 62 3.6 SW 20 28 11 15 1014.0 1014.0 0.0
25/04:30pm 15.4 11.1 7.1 57 4.1 WSW 19 24 10 13 1013.9 1013.9 0.0
25/04:00pm 15.8 11.9 7.3 57 4.2 SW 17 22 9 12 1013.8 1013.8 0.0
25/03:30pm 15.7 12.0 6.5 54 4.5 SW 15 19 8 10 1014.0 1014.0 0.0
25/03:00pm 15.8 11.9 7.3 57 4.2 SW 17 22 9 12 1014.0 1014.0 0.0
25/02:30pm 15.3 11.7 8.4 63 3.5 SW 17 20 9 11 1014.1 1014.1 0.0
25/02:00pm 15.8 12.8 9.4 65 3.3 SW 15 20 8 11 1014.2 1014.2 0.0
25/01:30pm 15.8 12.7 9.0 64 3.5 SW 15 22 8 12 1014.4 1014.4 0.0
25/01:00pm 15.5 12.1 7.7 59 3.9 WSW 15 20 8 11 1014.5 1014.5 0.0
25/12:30pm 15.8 12.5 9.6 66 3.2 WSW 17 22 9 12 1014.5 1014.5 0.0
25/12:00pm 15.2 11.7 8.9 66 3.2 WSW 17 24 9 13 1014.5 1014.5 0.0
25/11:30am 15.2 12.3 9.8 70 2.8 WSW 15 24 8 13 1014.4 1014.4 0.0
25/11:00am 15.4 12.3 10.3 71 2.7 WSW 17 26 9 14 1014.4 1014.4 0.0
25/10:30am 15.1 11.9 9.9 71 2.7 WSW 17 24 9 13 1014.3 1014.3 0.0
25/10:00am 15.4 12.2 9.8 69 2.9 W 17 26 9 14 1014.2 1014.2 0.0
25/09:30am 15.3 11.8 10.1 71 2.7 W 19 26 10 14 1014.0 1014.0 0.0
25/09:00am 14.9 11.1 9.2 68 2.9 W 19 26 10 14 1013.9 1013.9 0.8
25/08:30am 14.7 10.9 9.7 72 2.6 W 20 26 11 14 1013.6 1013.6 0.8
25/08:00am 14.0 10.1 9.3 73 2.4 W 20 26 11 14 1013.2 1013.2 0.8
25/07:30am 14.0 10.6 9.3 73 2.4 W 17 20 9 11 1012.6 1012.6 0.8
25/07:00am 13.4 9.3 8.8 74 2.3 WSW 20 28 11 15 1012.1 1012.1 0.8
25/06:30am 12.7 9.2 8.7 76 2.0 SW 17 24 9 13 1011.1 1011.1 0.8
25/06:00am 12.6 9.0 8.4 75 2.1 WSW 17 20 9 11 1010.9 1010.9 0.8
25/05:30am 12.6 8.5 8.8 77 1.9 WSW 20 28 11 15 1010.6 1010.6 0.8
25/05:00am 12.7 8.2 8.5 75 2.1 W 22 28 12 15 1010.6 1010.6 0.8
25/04:30am 12.5 8.2 8.0 74 2.2 W 20 28 11 15 1010.5 1010.5 0.8
25/04:00am 12.8 8.0 8.8 76 2.0 W 24 32 13 17 1010.4 1010.4 0.8
25/03:30am 12.8 8.3 8.4 74 2.2 W 22 30 12 16 1010.2 1010.2 0.8
25/03:00am 12.7 8.6 8.5 75 2.1 W 20 30 11 16 1010.1 1010.1 0.8
25/02:30am 12.8 8.3 8.4 74 2.2 W 22 30 12 16 1010.0 1010.0 0.8
25/02:00am 13.3 8.6 9.2 76 2.1 W 24 30 13 16 1009.9 1009.9 0.8
25/01:30am 13.1 9.0 8.7 74 2.2 W 20 26 11 14 1010.0 1010.0 0.8
25/01:00am 12.9 8.0 8.3 73 2.3 W 24 30 13 16 1010.0 1010.0 0.8
25/12:30am 13.1 8.0 7.6 69 2.7 W 24 32 13 17 1010.1 1010.1 0.8
25/12:00am 13.2 8.2 7.9 70 2.6 W 24 32 13 17 1010.0 1010.0 0.8
 
Date/Time
CST
Temp
°C
App
Temp
°C
Dew
Point
°C
Rel
Hum
%
Delta-T
°C
Wind Press
QNH
hPa
Press
MSL
hPa
Rain since
9am
mm
Dir  Spd
km/h
Gust
km/h
Spd
kts
Gust
kts
24/11:30pm 13.3 7.4 7.6 68 2.8 W 28 33 15 18 1010.2 1010.2 0.8
24/11:00pm 13.4 7.8 7.0 65 3.1 W 26 35 14 19 1010.1 1010.1 0.8
24/10:30pm 13.5 7.1 6.9 64 3.2 W 30 39 16 21 1009.9 1009.9 0.8
24/10:00pm 13.7 6.9 6.7 62 3.4 WNW 32 37 17 20 1009.9 1009.9 0.8
24/09:30pm 13.8 7.5 7.5 66 3.1 WNW 30 41 16 22 1009.9 1009.9 0.8
24/09:00pm 13.9 8.3 7.1 63 3.3 WNW 26 35 14 19 1009.7 1009.7 0.8
24/08:30pm 14.1 8.3 7.9 66 3.1 WNW 28 33 15 18 1009.5 1009.5 0.8
24/08:00pm 14.6 8.1 8.2 65 3.2 WNW 32 41 17 22 1009.2 1009.2 0.8
24/07:30pm 14.8 10.0 8.7 67 3.1 WNW 24 33 13 18 1008.9 1008.9 0.8
24/07:00pm 14.9 9.1 8.1 64 3.4 WNW 28 35 15 19 1008.4 1008.4 0.8
24/06:30pm 15.0 10.0 8.0 63 3.5 WNW 24 32 13 17 1007.9 1007.9 0.8
24/06:00pm 15.2 9.3 7.6 60 3.8 WNW 28 33 15 18 1007.6 1007.6 0.8
24/05:30pm 15.2 9.4 8.0 62 3.6 WNW 28 35 15 19 1007.3 1007.3 0.8
24/05:00pm 15.7 9.7 7.2 57 4.2 WNW 28 37 15 20 1006.9 1006.9 0.8
24/04:30pm 16.2 9.9 7.4 56 4.4 WNW 30 37 16 20 1006.4 1006.4 0.8
24/04:00pm 16.8 10.4 6.9 52 4.9 WNW 30 37 16 20 1006.3 1006.3 0.8
24/03:30pm 17.0 10.2 7.0 51 5.0 WNW 32 41 17 22 1006.0 1006.0 0.8
24/03:00pm 16.8 10.8 7.2 53 4.8 WNW 28 35 15 19 1006.0 1006.0 0.8
24/02:30pm 16.9 10.2 7.3 53 4.8 W 32 37 17 20 1006.0 1006.0 0.8
24/02:00pm 17.0 10.6 8.7 58 4.3 WNW 32 43 17 23 1006.0 1006.0 0.8
24/01:30pm 16.8 10.6 7.9 55 4.5 WNW 30 39 16 21 1005.9 1005.9 0.8
24/01:00pm 16.4 9.2 7.7 56 4.4 WNW 35 48 19 26 1005.9 1005.9 0.8
24/12:30pm 15.9 9.6 8.9 63 3.6 WNW 32 39 17 21 1005.8 1005.8 0.8
24/12:15pm 15.0 9.2 9.6 70 2.8 WNW 30 43 16 23 1005.9 1005.9 0.8
24/12:00pm 13.6 7.5 10.5 81 1.6 WNW 33 44 18 24 1005.9 1005.9 0.8
24/11:57am 13.9 8.0 10.5 80 1.8 WNW 32 43 17 23 1005.9 1005.9 0.8
24/11:30am 16.0 9.8 9.5 65 3.4 WNW 32 43 17 23 1005.7 1005.7 0.4
24/11:00am 14.4 7.7 9.8 74 2.4 WNW 35 52 19 28 1005.6 1005.6 0.4
24/10:51am 14.7 9.9 10.3 75 2.3 WNW 26 37 14 20 1005.5 1005.5 0.4
24/10:30am 12.7 6.3 10.8 88 1.0 W 35 43 19 23 1005.7 1005.7 0.4
24/10:21am 13.7 7.3 9.4 75 2.2 WNW 33 48 18 26 1005.6 1005.6 0.0
24/10:11am 14.2 8.1 9.8 75 2.3 NW 32 50 17 27 1005.4 1005.4 0.0
24/10:00am 14.8 8.6 9.2 69 2.9 NW 32 41 17 22 1005.4 1005.4 0.0
24/09:30am 15.4 8.9 9.0 65 3.3 NNW 33 44 18 24 1005.4 1005.4 0.0
24/09:00am 15.6 9.2 9.2 65 3.3 NW 33 46 18 25 1005.1 1005.1 0.0
24/08:30am 14.8 7.6 9.2 69 2.9 NW 37 50 20 27 1004.9 1004.9 0.0
24/08:00am 14.5 6.9 9.2 70 2.7 NW 39 54 21 29 1004.7 1004.7 0.0
24/07:30am 14.0 7.8 9.3 73 2.4 NW 32 46 17 25 1004.5 1004.5 0.0
24/07:00am 13.9 8.1 9.4 74 2.3 NW 30 37 16 20 1004.4 1004.4 0.0
24/06:30am 13.5 8.1 9.6 77 2.0 NW 28 33 15 18 1004.0 1004.0 0.0
24/06:00am 13.6 8.6 9.5 76 2.1 NW 26 35 14 19 1003.9 1003.9 0.0
24/05:30am 13.8 8.7 9.1 73 2.4 NW 26 37 14 20 1003.7 1003.7 0.0
24/05:00am 13.8 8.0 9.3 74 2.3 NW 30 39 16 21 1003.3 1003.3 0.0
24/04:30am 13.7 9.0 9.4 75 2.2 WNW 24 35 13 19 1003.1 1003.1 0.0
24/04:00am 13.6 8.5 9.1 74 2.3 WNW 26 41 14 22 1002.9 1002.9 0.0
24/03:30am 13.7 7.5 9.4 75 2.2 WNW 32 41 17 22 1002.9 1002.9 0.0
24/03:00am 14.0 8.1 10.4 79 1.9 WNW 32 39 17 21 1002.9 1002.9 0.0
24/02:30am 14.3 8.5 10.9 80 1.8 WNW 32 39 17 21 1003.0 1003.0 0.0
24/02:00am 14.3 8.8 10.7 79 1.9 WNW 30 41 16 22 1003.0 1003.0 0.0
24/01:30am 14.2 9.2 10.8 80 1.8 NW 28 37 15 20 1003.3 1003.3 0.0
24/01:00am 14.1 9.1 10.9 81 1.7 NW 28 39 15 21 1003.4 1003.4 0.0
24/12:30am 14.4 9.3 10.6 78 2.0 NW 28 39 15 21 1003.8 1003.8 0.0
24/12:00am 14.6 9.1 10.4 76 2.2 NW 30 41 16 22 1003.9 1003.9 0.0
 
Date/Time
CST
Temp
°C
App
Temp
°C
Dew
Point
°C
Rel
Hum
%
Delta-T
°C
Wind Press
QNH
hPa
Press
MSL
hPa
Rain since
9am
mm
Dir  Spd
km/h
Gust
km/h
Spd
kts
Gust
kts
23/11:30pm 14.7 9.6 10.5 76 2.2 NW 28 35 15 19 1004.2 1004.2 0.0
23/11:00pm 14.6 10.3 10.6 77 2.1 NW 24 33 13 18 1004.3 1004.3 0.0
23/10:30pm 14.8 10.0 10.2 74 2.4 NW 26 35 14 19 1004.3 1004.3 0.0
23/10:00pm 14.9 9.7 10.3 74 2.4 NW 28 37 15 20 1004.5 1004.5 0.0
23/09:30pm 15.1 9.2 10.4 73 2.5 NW 32 41 17 22 1004.4 1004.4 0.0
23/09:00pm 15.1 11.1 10.6 74 2.4 NW 22 30 12 16 1004.6 1004.6 0.0
23/08:30pm 15.2 10.8 10.5 73 2.5 NW 24 32 13 17 1004.6 1004.6 0.0
23/08:00pm 15.2 11.3 10.7 74 2.4 NW 22 28 12 15 1004.6 1004.6 0.0
23/07:30pm 15.2 11.8 10.7 74 2.4 NW 19 28 10 15 1004.2 1004.2 0.0
23/07:00pm 15.4 12.7 10.5 72 2.6 NW 15 20 8 11 1003.7 1003.7 0.0

Latest Capital City Observations: Canberra | Sydney | Melbourne | Brisbane | Adelaide | Perth | Hobart | Darwin

Other Formats:

Comma delimited format used in spreadsheet applications
http://www.bom.gov.au/fwo/IDS60901/IDS60901.94672.axf

JavaScript Object Notation format (JSON) in row-major order
http://www.bom.gov.au/fwo/IDS60901/IDS60901.94672.json